Simultaneous Nadir Overpasses (SNOs) Predictions

Prediction of SNOs between NOAA-15 and METOP-C Satellite Orbit:

Table of predicted SNOs for the next 14.0 days since TLE Epoch: 12/14/2023
Index Date (NOAA-15) Time (NOAA-15) Lat,Lon (NOAA-15) SZA (NOAA-15 ) Date (METOP-C) Time (METOP-C) Lat,Lon (METOP-C) SZA (METOP-C ) Distance(km) Time Diff (sec)
1 12/27/2023 17:50:36 -81.07, 130.78 73.85 12/27/2023 17:49:27 -81.06, 130.62 73.90 2.86 69
2 12/27/2023 18:41:08 81.08, -61.99 106.15 12/27/2023 18:40:08 81.06, -61.96 106.12 1.39 60
3 12/27/2023 19:31:37 -81.08, 105.33 73.86 12/27/2023 19:30:48 -81.07, 105.49 73.88 3.00 49
4 12/27/2023 20:22:07 81.07, -87.08 106.15 12/27/2023 20:21:28 81.07, -87.09 106.14 0.48 39
5 12/27/2023 21:12:36 -81.07, 80.24 73.86 12/27/2023 21:12:08 -81.08, 80.35 73.86 2.08 28
6 12/27/2023 22:03:08 81.08,-112.54 106.14 12/27/2023 22:02:50 81.07,-112.60 106.11 1.66 18
7 12/27/2023 22:53:37 -81.08, 54.79 73.87 12/27/2023 22:53:30 -81.07, 54.85 73.88 1.54 7
8 12/27/2023 23:44:08 81.07,-137.63 106.14 12/27/2023 23:44:11 81.07,-137.73 106.13 1.74 3
9 12/28/2023 00:34:37 -81.07, 29.70 73.87 12/28/2023 00:34:51 -81.08, 29.71 73.86 0.66 14
10 12/28/2023 01:25:09 81.08,-163.09 106.12 12/28/2023 01:25:33 81.07,-163.24 106.11 2.86 24
11 12/28/2023 02:15:38 -81.08, 4.24 73.88 12/28/2023 02:16:13 -81.07, 4.21 73.88 1.29 35
12 12/28/2023 03:06:09 81.07, 171.81 106.13 12/28/2023 03:06:54 81.07, 171.63 106.13 3.24 45



Historial Predications of SNOs between NOAA-15 and METOP-C
